[[{"header":{"parameterUnit":"m.s-1","parameterCategory":1,"la1":30.2991,"la2":30.254,"lo1":-89.0895,"lo2":-89.0444,"dy":0.0017,"dx":0.0017,"nx":28,"ny":28,"refTime":"2023-08-06T21:00:00:Z","depth":0,"parameterNumber":2,"parameterNumberName":"U-component_of_WINDS"},"data":[0,0,0,0,0,0,0,0,0,0,0,0,0,0,0,0,0,0,0,0,0,0,0,0,0,0,0,0,0,0,0,0,0,0,0,0,0,0,0,0,0,0,0,0,0,0,0,0,0,0,0,0,0,0,0,0,0,0,3.8393,3.8394,0,3.851,3.8511,3.8513,3.8493,3.8491,3.8489,3.8487,3.8614,3.8619,3.8625,0,0,0,0,0,0,0,0,0,0,0,0,0,3.8158,3.8162,3.8393,3.8394,3.8395,3.851,3.8512,3.8513,3.8493,3.8491,3.8488,3.8486,3.8612,3.8619,3.8625,0,0,0,0,0,0,0,0,0,0,0,0,0,3.8266,3.8164,3.8392,3.8399,3.8401,3.851,3.8512,3.8514,3.8494,3.8491,3.8488,3.8485,3.861,3.8618,3.8626,3.8737,0,0,3.865,3.8654,0,0,0,0,0,0,0,0,3.826,3.8275,3.8397,3.8399,3.8401,3.8484,3.8475,3.8589,3.8495,3.8459,3.8487,3.8483,3.8574,3.8584,3.8614,3.8743,3.8748,3.8651,3.8656,3.8659,3.8662,0,0,0,0,0,0,0,3.8253,3.827,3.8439,3.8399,3.8401,3.8399,3.8411,3.8497,3.8533,3.8462,3.8461,3.8474,3.8574,3.8606,3.8616,3.875,3.8651,3.8658,3.8663,3.8666,3.8978,3.8982,0,0,0,0,0,0,3.8242,3.8264,3.8436,3.8443,3.8321,3.8406,3.8419,3.846,3.8531,3.8539,3.8477,3.8473,3.8594,3.8607,3.8621,3.8756,3.8659,3.8667,3.8671,3.8975,3.8979,3.8983,0,0,0,0,0,0,3.8237,3.8258,3.8431,3.8353,3.8375,3.8413,3.846,3.8464,3.8496,3.8543,3.855,3.8502,3.8592,3.861,3.8708,3.876,3.867,3.8678,3.8971,3.8976,3.8981,3.9027,0,0,0,0,0,0,3.8231,3.8256,3.8297,3.8354,3.8379,3.8514,3.8463,3.8469,3.8509,3.8505,3.8568,3.8576,3.8591,3.8696,3.8716,3.877,3.8684,3.8966,3.8973,3.8979,3.9021,3.9033,3.9044,0,0,0,0,0,3.8222,3.8306,3.8299,3.832,3.843,3.8517,3.8532,3.8545,3.8513,3.8556,3.8586,3.8574,3.8751,3.8707,3.8729,3.8785,3.8963,3.8971,3.8979,3.9016,3.9031,3.9043,0,0,0,0,0,0,3.8257,3.8314,3.8306,3.8411,3.8459,3.8513,3.8567,3.856,3.862,3.8614,3.8631,3.8645,3.8745,3.8775,3.8724,3.8897,3.8853,3.8866,3.8874,3.8888,3.8899,3.889,3.869,0,0,0,0,0,3.8276,3.8339,3.8387,3.8475,3.8499,3.8529,3.8567,3.8573,3.8625,3.8646,3.8683,3.8736,3.8803,3.8847,3.8912,3.9026,3.904,3.9076,3.9087,3.9096,3.9107,3.917,3.9187,3.9009,3.9009,3.9009,0,0,3.8317,3.8356,3.8396,3.8483,3.852,3.8588,3.8546,3.8619,3.867,3.8658,3.8752,3.8782,3.8842,3.8948,3.8997,3.8976,3.9159,3.9106,3.9113,3.9119,3.918,3.9197,3.9212,3.9014,3.9014,3.9013,0,0,3.8427,3.8462,3.854,3.8578,3.8635,3.8655,3.8674,3.873,3.8748,3.8843,3.8835,3.8897,3.9013,3.9056,3.9093,3.922,3.9211,3.9241,3.93,3.9361,3.9375,3.9388,3.9434,3.945,3.9251,3.9251,3.9252,0,3.8472,3.857,3.8581,3.8654,3.8694,3.8684,3.8763,3.8801,3.8878,3.8906,3.8881,3.9026,3.9066,3.9183,3.9213,3.9244,3.9267,3.9233,3.9372,3.9385,3.9397,3.944,3.9458,3.9255,3.9254,3.9254,3.9254,0,3.8623,3.8692,3.8748,3.882,3.8865,3.8942,3.8966,3.9012,3.9014,3.9037,3.9135,3.9182,3.9256,3.9285,3.9289,3.9403,3.9388,3.9368,3.9323,3.9416,3.9458,3.9475,3.9259,3.9258,3.9257,3.9256,0,0,3.8757,3.8833,3.8854,3.8887,3.895,3.9004,3.9082,3.9152,3.9191,3.9245,3.9311,3.9409,3.9391,3.9433,3.9442,3.9496,3.9594,3.9469,3.9471,3.9491,3.9724,3.9738,3.9758,3.9589,3.9592,3.9595,3.9719,0,3.8873,3.9006,3.9018,3.9139,3.9203,3.9195,3.9263,3.931,3.9334,3.9394,3.9421,3.9491,3.9461,3.9486,3.9539,3.9571,3.9641,3.9562,3.9652,3.9655,3.9637,3.9779,3.9795,3.991,3.9735,3.9738,3.974,0,3.9025,3.9081,3.9207,3.9262,3.9289,3.9349,3.9415,3.9472,3.9527,3.9541,3.9588,3.959,3.9671,3.9624,3.9738,3.9684,3.9722,3.9743,3.9748,3.9757,3.9703,3.9793,3.9947,3.9964,3.9766,3.9764,3.9762,0,3.9111,3.9218,3.9307,3.9336,3.9401,3.9444,3.9474,3.9524,3.9566,3.9625,3.9653,3.9721,3.9759,3.9813,3.9834,3.9798,3.9948,3.9902,3.9963,3.9962,3.9995,3.9992,4.0157,4.0019,4.0019,4.0019,4.0018,0,3.9239,3.9316,3.9347,3.9402,3.9489,3.9504,3.9591,3.9619,3.9665,3.9727,3.9725,3.9784,3.9808,3.9872,3.9889,3.9981,3.9999,4.0013,4.0017,4.0013,4.0012,4.0039,4.0031,4.0023,4.0022,4.0021,4.002,0,3.9349,3.9372,3.9469,3.9523,3.9538,3.9601,3.9648,3.9702,3.9725,3.9804,3.9824,3.9861,3.9935,3.9962,4.0053,4.0065,4.0172,4.0169,4.0153,4.0154,4.0213,4.0207,4.0401,4.0427,4.0272,4.0273,4.0275,0,3.9428,3.9488,3.9548,3.9588,3.9619,3.9684,3.9726,3.9744,3.9789,3.9855,3.9902,3.9976,4.0035,4.0156,4.0192,4.0263,4.0261,4.0325,4.0272,4.0267,4.0263,4.0259,4.0265,4.0334,4.0336,4.0337,4.0338,0,3.9568,3.9577,3.9636,3.9701,3.9751,3.9803,3.9854,3.9888,3.9913,3.9964,4.0039,4.0085,4.0178,4.0251,4.0323,4.0357,4.0353,4.0355,4.0372,4.0369,4.0357,4.0365,4.018,4.035,4.0349,4.0348,4.0347,4.0347,3.9666,3.9718,3.9768,3.9836,3.9875,3.9923,3.9976,4.0006,4.0068,4.0143,4.0151,4.0232,4.0286,4.0382,4.0418,4.0484,4.0467,4.0492,4.0499,4.0505,4.0509,4.0347,4.0497,4.0497,4.0496,4.0496,4.0496,0,3.9805,3.9837,3.9899,3.9969,4.0022,4.0012,4.0068,4.0114,4.0184,4.0234,4.0292,4.038,4.0451,4.0493,4.0566,4.061,4.061,4.0629,4.0625,4.0633,4.052,4.0498,4.0627,4.0627,4.0627,4.0627,4.0627,4.0627,3.9884,3.9972,3.9987,4.0096,4.0128,4.0206,4.0239,4.0283,4.0323,4.0419,4.0478,4.0504,4.0552,4.0628,4.0694,4.0705,4.0732,4.0752,4.0761,4.0655,4.0641,4.0628,4.0607,4.0757,4.0758,4.0868,4.0869,4.087]},{"header":{"parameterUnit":"m.s-1","parameterCategory":1,"la1":30.2991,"la2":30.254,"lo1":-89.0895,"lo2":-89.0444,"dy":0.0017,"dx":0.0017,"nx":28,"ny":28,"refTime":"2023-08-06T21:00:00:Z","depth":0,"parameterNumber":3,"parameterNumberName":"V-component_of_WINDS"},"data":[0,0,0,0,0,0,0,0,0,0,0,0,0,0,0,0,0,0,0,0,0,0,0,0,0,0,0,0,0,0,0,0,0,0,0,0,0,0,0,0,0,0,0,0,0,0,0,0,0,0,0,0,0,0,0,0,0,0,2.6162,2.6162,0,2.6203,2.6204,2.6204,2.6222,2.6222,2.6222,2.6221,2.6261,2.6262,2.6263,0,0,0,0,0,0,0,0,0,0,0,0,0,2.6093,2.6094,2.6162,2.6162,2.6163,2.6203,2.6204,2.6205,2.6222,2.6222,2.6221,2.6221,2.6261,2.6262,2.6263,0,0,0,0,0,0,0,0,0,0,0,0,0,2.6127,2.6094,2.6162,2.6176,2.6178,2.6203,2.6204,2.6205,2.6222,2.6222,2.6221,2.6221,2.626,2.6262,2.6263,2.6276,0,0,2.6269,2.6269,0,0,0,0,0,0,0,0,2.6125,2.613,2.6174,2.6175,2.6177,2.6207,2.6194,2.6229,2.6222,2.6205,2.6221,2.6221,2.6243,2.6246,2.6254,2.6278,2.628,2.6269,2.627,2.627,2.6271,0,0,0,0,0,0,0,2.6123,2.6128,2.6178,2.6174,2.6177,2.6179,2.6184,2.6201,2.6224,2.6206,2.6208,2.6213,2.6244,2.6252,2.6255,2.628,2.6269,2.627,2.6271,2.6272,2.6315,2.6315,0,0,0,0,0,0,2.6119,2.6126,2.6177,2.6179,2.6151,2.6181,2.6186,2.6198,2.6224,2.6228,2.6213,2.6213,2.625,2.6253,2.6257,2.6272,2.627,2.6272,2.6273,2.6314,2.6315,2.6315,0,0,0,0,0,0,2.6117,2.6123,2.6175,2.6153,2.616,2.6182,2.6195,2.6199,2.6207,2.6229,2.6233,2.6217,2.625,2.6254,2.6271,2.6274,2.6273,2.6274,2.6314,2.6314,2.6315,2.6304,0,0,0,0,0,0,2.6115,2.6122,2.6129,2.6153,2.6161,2.619,2.6195,2.62,2.621,2.6212,2.6234,2.6238,2.625,2.6268,2.6273,2.6276,2.6276,2.6314,2.6314,2.6315,2.6304,2.6304,2.6303,0,0,0,0,0,2.6113,2.6124,2.6129,2.6135,2.617,2.619,2.6195,2.621,2.6211,2.6216,2.623,2.6237,2.6273,2.627,2.6275,2.6279,2.6314,2.6314,2.6315,2.6304,2.6304,2.6303,0,0,0,0,0,0,2.6098,2.6127,2.6133,2.6153,2.6169,2.6193,2.6201,2.6209,2.6224,2.6225,2.6241,2.6246,2.6261,2.6271,2.6268,2.6291,2.6294,2.6295,2.6284,2.6284,2.6284,2.6281,2.6277,0,0,0,0,0,2.6098,2.6113,2.6137,2.6152,2.616,2.6179,2.6189,2.6199,2.6215,2.6222,2.6237,2.6252,2.6266,2.6276,2.629,2.6305,2.631,2.631,2.631,2.631,2.6311,2.6318,2.6318,2.6316,2.6316,2.6316,0,0,2.6096,2.6114,2.6123,2.615,2.6164,2.6178,2.6185,2.62,2.621,2.6224,2.6241,2.6252,2.627,2.6285,2.6293,2.6295,2.6312,2.631,2.631,2.6311,2.6318,2.6318,2.6318,2.6316,2.6316,2.6316,0,0,2.6101,2.6117,2.613,2.6143,2.6164,2.6176,2.6179,2.6202,2.621,2.6227,2.6237,2.6249,2.6274,2.6286,2.6295,2.6302,2.6309,2.6306,2.6304,2.6311,2.6311,2.6311,2.6313,2.6313,2.6307,2.6307,2.6307,0,2.6096,2.612,2.6136,2.615,2.6161,2.6174,2.6187,2.6199,2.6223,2.6229,2.6231,2.6262,2.6275,2.6292,2.6294,2.6301,2.6304,2.6304,2.631,2.6311,2.6311,2.6313,2.6313,2.6307,2.6307,2.6307,2.6307,0,2.6112,2.6128,2.6136,2.616,2.6171,2.6185,2.6201,2.6211,2.6219,2.623,2.6246,2.6262,2.628,2.6285,2.6293,2.6303,2.6303,2.6307,2.631,2.631,2.6312,2.6313,2.6306,2.6306,2.6306,2.6306,0,0,2.6111,2.6142,2.6144,2.6154,2.6177,2.6189,2.6202,2.622,2.6227,2.6242,2.6253,2.6273,2.6276,2.6286,2.6296,2.6302,2.6305,2.6305,2.6305,2.6304,2.6315,2.6312,2.6313,2.6309,2.6309,2.6309,2.6314,0,2.6118,2.6144,2.6157,2.6176,2.619,2.6202,2.6213,2.6227,2.6238,2.625,2.6261,2.6274,2.6279,2.6285,2.6291,2.6303,2.6307,2.6303,2.6318,2.6318,2.6313,2.6314,2.6311,2.6314,2.6314,2.6315,2.6315,0,2.613,2.6146,2.6167,2.6186,2.6192,2.6203,2.6219,2.6231,2.6246,2.6253,2.6264,2.6273,2.6285,2.6287,2.6303,2.63,2.6306,2.6313,2.6313,2.6315,2.6316,2.6315,2.6316,2.6316,2.6316,2.6316,2.6316,0,2.6126,2.6152,2.6167,2.6175,2.6199,2.6205,2.6215,2.6231,2.624,2.6254,2.6259,2.6274,2.6282,2.6292,2.6304,2.6304,2.6319,2.6322,2.6324,2.6324,2.6327,2.6327,2.6328,2.6332,2.6332,2.6331,2.6331,0,2.6133,2.6144,2.6165,2.6175,2.6188,2.6202,2.6214,2.6225,2.6238,2.6249,2.6259,2.6268,2.6284,2.6294,2.6304,2.6315,2.6319,2.6324,2.6326,2.6323,2.6322,2.6327,2.6327,2.6332,2.6332,2.6332,2.6332,0,2.613,2.6145,2.6162,2.6183,2.6188,2.6196,2.6213,2.6222,2.6233,2.6245,2.6249,2.6265,2.6278,2.6291,2.6308,2.6314,2.6325,2.6329,2.6321,2.6322,2.6323,2.6323,2.6328,2.6329,2.6332,2.6332,2.6332,0,2.6133,2.6143,2.6164,2.6172,2.6182,2.6195,2.6204,2.6218,2.6227,2.6245,2.6251,2.6264,2.6276,2.6296,2.6309,2.6321,2.6325,2.6326,2.6327,2.6323,2.6324,2.6323,2.6324,2.6325,2.6325,2.6325,2.6325,0,2.6137,2.6143,2.6157,2.6173,2.6184,2.6196,2.6209,2.6215,2.6231,2.624,2.6254,2.6263,2.628,2.6293,2.6307,2.6316,2.6323,2.6324,2.6326,2.6322,2.6317,2.6319,2.6319,2.6324,2.6324,2.6324,2.6324,2.6324,2.6137,2.6146,2.6162,2.6176,2.6187,2.6198,2.6207,2.6219,2.6231,2.6246,2.6253,2.6267,2.628,2.63,2.6308,2.6318,2.6319,2.6321,2.6322,2.6322,2.6321,2.6315,2.632,2.632,2.632,2.632,2.632,0,2.6141,2.6152,2.6164,2.6182,2.6193,2.6199,2.6213,2.6221,2.6233,2.6245,2.6257,2.6271,2.6284,2.6297,2.6309,2.6314,2.6318,2.6317,2.6317,2.6318,2.6319,2.6316,2.6314,2.6314,2.6314,2.6314,2.6314,2.6314,2.6144,2.6158,2.6166,2.6185,2.6195,2.6209,2.6216,2.6226,2.6236,2.6253,2.6263,2.6272,2.6284,2.6297,2.6308,2.6311,2.6315,2.6314,2.6318,2.6318,2.6319,2.6319,2.6317,2.6315,2.6315,2.6317,2.6317,2.6317]}]]